CCA4580 ZUCK-ZUGY

Flight info

Callsign CCA4580
Flight time 0h 45m
Altitude 24600
Route VILU1Z VILUS W180 MEMAG MEMA9Z
Aircraft A339/H-SADE1E2E3GHIJ3J5M1P2RWXY/LB2D1

Departure

Time 2026-05-08 08:16
Airport Chongqing Jiangbei International Airport (ZUCK)

Arrival

Time 2026-05-08 09:01
Airport Guiyang Longdongbao International Airport (ZUGY)
Time Latitude Longitude Altitude Speed Heading
2026-05-08 07:51 29.71793 106.65765 1378 ft 0 kts 242°
2026-05-08 08:07 29.71795 106.65769 1378 ft 2 kts 242°
2026-05-08 08:07 29.71801 106.65783 1378 ft 0 kts 242°
2026-05-08 08:07 29.71806 106.65794 1378 ft 2 kts 231°
2026-05-08 08:08 29.71818 106.65806 1378 ft 2 kts 207°
2026-05-08 08:08 29.71832 106.65811 1378 ft 2 kts 187°
2026-05-08 08:08 29.71848 106.65811 1378 ft 2 kts 166°
2026-05-08 08:08 29.71862 106.65804 1378 ft 2 kts 145°
2026-05-08 08:09 29.71873 106.65792 1378 ft 2 kts 124°
2026-05-08 08:09 29.71879 106.65780 1378 ft 0 kts 107°
2026-05-08 08:09 29.71880 106.65775 1378 ft 0 kts 106°
2026-05-08 08:12 29.71879 106.65778 1378 ft 1 kts 107°
2026-05-08 08:12 29.71876 106.65792 1378 ft 2 kts 107°
2026-05-08 08:13 29.71867 106.65819 1378 ft 4 kts 110°
2026-05-08 08:13 29.71854 106.65859 1378 ft 6 kts 111°
2026-05-08 08:13 29.71837 106.65912 1378 ft 7 kts 111°
2026-05-08 08:13 29.71818 106.65974 1378 ft 8 kts 107°
2026-05-08 08:14 29.71800 106.66045 1378 ft 10 kts 107°
2026-05-08 08:14 29.71779 106.66128 1378 ft 11 kts 106°
2026-05-08 08:14 29.71759 106.66217 1378 ft 10 kts 94°
2026-05-08 08:14 29.71802 106.66270 1378 ft 10 kts 19°
2026-05-08 08:15 29.71983 106.66334 1378 ft 59 kts 17°
2026-05-08 08:15 29.72608 106.66553 1379 ft 123 kts 16°
2026-05-08 08:15 29.73598 106.66894 1399 ft 172 kts 17°
2026-05-08 08:15 29.74848 106.67317 1740 ft 194 kts 17°
2026-05-08 08:16 29.76104 106.67753 2616 ft 186 kts 15°
2026-05-08 08:16 29.77282 106.68252 3524 ft 179 kts 24°
2026-05-08 08:16 29.78353 106.68990 4232 ft 182 kts 33°
2026-05-08 08:16 29.79409 106.69885 4707 ft 196 kts 31°
2026-05-08 08:17 29.80588 106.70773 5122 ft 212 kts 31°
2026-05-08 08:17 29.81893 106.71744 5473 ft 230 kts 37°
2026-05-08 08:17 29.82902 106.73247 5790 ft 252 kts 70°
2026-05-08 08:17 29.82993 106.75331 6116 ft 272 kts 106°
2026-05-08 08:18 29.81990 106.77174 6700 ft 279 kts 137°
2026-05-08 08:18 29.80514 106.78566 7643 ft 273 kts 143°
2026-05-08 08:18 29.78952 106.79902 8389 ft 276 kts 143°
2026-05-08 08:18 29.77422 106.81223 9070 ft 280 kts 143°
2026-05-08 08:19 29.75860 106.82606 9777 ft 283 kts 143°
2026-05-08 08:19 29.74279 106.84030 10435 ft 289 kts 143°
2026-05-08 08:19 29.72631 106.85529 10799 ft 306 kts 142°
2026-05-08 08:19 29.70936 106.87079 11111 ft 324 kts 142°
2026-05-08 08:20 29.69106 106.88757 11428 ft 341 kts 142°
2026-05-08 08:20 29.67196 106.90512 11829 ft 356 kts 142°
2026-05-08 08:20 29.65248 106.92302 12496 ft 361 kts 143°
2026-05-08 08:20 29.63267 106.94113 13242 ft 364 kts 144°
2026-05-08 08:21 29.61072 106.95543 13941 ft 365 kts 160°
2026-05-08 08:21 29.58621 106.96231 14642 ft 366 kts 176°
2026-05-08 08:21 29.56085 106.96299 15354 ft 368 kts 182°
2026-05-08 08:21 29.53520 106.96255 16041 ft 372 kts 182°
2026-05-08 08:22 29.50893 106.96201 16732 ft 375 kts 182°
2026-05-08 08:22 29.48298 106.96152 17404 ft 379 kts 182°
2026-05-08 08:22 29.45619 106.96108 18083 ft 382 kts 182°
2026-05-08 08:22 29.42950 106.96069 18738 ft 386 kts 182°
2026-05-08 08:23 29.40270 106.96034 19379 ft 389 kts 182°
2026-05-08 08:23 29.37558 106.95998 20008 ft 393 kts 182°
2026-05-08 08:23 29.34811 106.95964 20619 ft 396 kts 182°
2026-05-08 08:23 29.32064 106.95931 21204 ft 399 kts 183°
2026-05-08 08:24 29.29261 106.95896 21775 ft 403 kts 183°
2026-05-08 08:24 29.26461 106.95862 22321 ft 406 kts 183°
2026-05-08 08:24 29.23612 106.95828 22858 ft 409 kts 183°
2026-05-08 08:24 29.20775 106.95793 23368 ft 412 kts 183°
2026-05-08 08:25 29.17878 106.95757 23872 ft 415 kts 183°
2026-05-08 08:25 29.14976 106.95722 24369 ft 418 kts 183°
2026-05-08 08:25 29.12078 106.95687 24713 ft 421 kts 183°
2026-05-08 08:25 29.09118 106.95651 24771 ft 422 kts 183°
2026-05-08 08:26 29.06182 106.95616 24773 ft 422 kts 183°
2026-05-08 08:26 29.03254 106.95582 24774 ft 423 kts 183°
2026-05-08 08:26 29.00284 106.95545 24774 ft 425 kts 183°
2026-05-08 08:26 28.97310 106.95510 24775 ft 426 kts 183°
2026-05-08 08:27 28.94366 106.95474 24775 ft 426 kts 183°
2026-05-08 08:27 28.91375 106.95439 24775 ft 427 kts 183°
2026-05-08 08:27 28.88401 106.95404 24776 ft 427 kts 183°
2026-05-08 08:27 28.85436 106.95368 24776 ft 427 kts 183°
2026-05-08 08:28 28.82429 106.95332 24775 ft 427 kts 183°
2026-05-08 08:28 28.79465 106.95297 24775 ft 427 kts 183°
2026-05-08 08:28 28.76522 106.95261 24775 ft 427 kts 183°
2026-05-08 08:28 28.73522 106.95225 24775 ft 427 kts 183°
2026-05-08 08:29 28.70568 106.95190 24775 ft 427 kts 183°
2026-05-08 08:29 28.67598 106.95155 24775 ft 427 kts 183°
2026-05-08 08:29 28.64626 106.95119 24775 ft 427 kts 183°
2026-05-08 08:29 28.61651 106.95084 24775 ft 427 kts 183°
2026-05-08 08:30 28.58664 106.95049 24775 ft 427 kts 183°
2026-05-08 08:30 28.55696 106.95013 24775 ft 427 kts 183°
2026-05-08 08:30 28.49757 106.94944 24775 ft 427 kts 183°
2026-05-08 08:31 28.46789 106.94909 24775 ft 427 kts 183°
2026-05-08 08:31 28.43798 106.94873 24775 ft 427 kts 183°
2026-05-08 08:31 28.40848 106.94838 24775 ft 427 kts 183°
2026-05-08 08:31 28.37848 106.94802 24775 ft 427 kts 183°
2026-05-08 08:32 28.34898 106.94767 24775 ft 427 kts 183°
2026-05-08 08:32 28.31901 106.94731 24775 ft 427 kts 183°
2026-05-08 08:32 28.28939 106.94696 24775 ft 427 kts 183°
2026-05-08 08:32 28.25965 106.94661 24775 ft 427 kts 183°
2026-05-08 08:33 28.23013 106.94701 24775 ft 428 kts 180°
2026-05-08 08:33 28.20005 106.94863 24776 ft 428 kts 180°
2026-05-08 08:33 28.17047 106.95031 24776 ft 428 kts 180°
2026-05-08 08:33 28.14082 106.95200 24775 ft 428 kts 180°
2026-05-08 08:34 28.11045 106.95371 24776 ft 428 kts 180°
2026-05-08 08:34 28.08066 106.95538 24778 ft 428 kts 180°
2026-05-08 08:34 28.05049 106.95705 24782 ft 429 kts 180°
2026-05-08 08:34 28.02049 106.95866 24786 ft 429 kts 180°
2026-05-08 08:35 27.99050 106.96026 24790 ft 429 kts 180°
2026-05-08 08:35 27.96040 106.96186 24795 ft 429 kts 180°
2026-05-08 08:35 27.93058 106.96343 24798 ft 429 kts 180°
2026-05-08 08:35 27.90052 106.96502 24800 ft 429 kts 180°
2026-05-08 08:36 27.87036 106.96661 24802 ft 429 kts 180°
2026-05-08 08:36 27.84076 106.96817 24803 ft 429 kts 180°
2026-05-08 08:36 27.81085 106.96974 24803 ft 429 kts 180°
2026-05-08 08:36 27.78066 106.97133 24803 ft 429 kts 180°
2026-05-08 08:37 27.75107 106.97288 24803 ft 429 kts 180°
2026-05-08 08:37 27.72097 106.97446 24803 ft 429 kts 180°
2026-05-08 08:37 27.69108 106.97603 24803 ft 429 kts 180°
2026-05-08 08:37 27.66138 106.97758 24804 ft 429 kts 180°
2026-05-08 08:38 27.63133 106.97915 24803 ft 429 kts 180°
2026-05-08 08:38 27.60172 106.98070 24803 ft 429 kts 180°
2026-05-08 08:38 27.57183 106.98227 24803 ft 429 kts 180°
2026-05-08 08:38 27.54173 106.98384 24804 ft 429 kts 180°
2026-05-08 08:39 27.51204 106.98540 24633 ft 429 kts 180°
2026-05-08 08:39 27.48199 106.98697 24379 ft 426 kts 180°
2026-05-08 08:39 27.45241 106.98854 24128 ft 424 kts 180°
2026-05-08 08:39 27.42300 106.99012 23877 ft 423 kts 179°
2026-05-08 08:40 27.39353 106.99171 23625 ft 421 kts 179°
2026-05-08 08:40 27.36449 106.99326 23377 ft 420 kts 179°
2026-05-08 08:40 27.33549 106.99480 23128 ft 418 kts 179°
2026-05-08 08:40 27.30645 106.99635 22879 ft 416 kts 179°
2026-05-08 08:41 27.27758 106.99788 22636 ft 415 kts 179°
2026-05-08 08:41 27.24851 106.99941 22397 ft 413 kts 179°
2026-05-08 08:41 27.21994 107.00092 22159 ft 412 kts 179°
2026-05-08 08:41 27.19153 107.00242 21852 ft 410 kts 179°
2026-05-08 08:42 27.16273 107.00394 21487 ft 408 kts 179°
2026-05-08 08:42 27.13454 107.00542 21110 ft 405 kts 179°
2026-05-08 08:42 27.10670 107.00689 20728 ft 403 kts 179°
2026-05-08 08:42 27.07850 107.00838 20333 ft 400 kts 179°
2026-05-08 08:43 27.05083 107.00983 19946 ft 397 kts 179°
2026-05-08 08:43 27.02336 107.01125 19558 ft 394 kts 179°
2026-05-08 08:43 26.99586 107.01264 19174 ft 391 kts 178°
2026-05-08 08:43 26.96900 107.01400 18795 ft 388 kts 178°
2026-05-08 08:44 26.94172 107.01541 18405 ft 385 kts 177°
2026-05-08 08:44 26.91528 107.01677 18001 ft 384 kts 176°
2026-05-08 08:44 26.88823 107.01824 17557 ft 384 kts 176°
2026-05-08 08:44 26.86175 107.01969 17147 ft 383 kts 176°
2026-05-08 08:45 26.83514 107.02044 16745 ft 381 kts 180°
2026-05-08 08:45 26.80854 107.01851 16353 ft 380 kts 186°
2026-05-08 08:45 26.78248 107.01372 16009 ft 377 kts 191°
2026-05-08 08:45 26.75698 107.00759 15612 ft 375 kts 192°
2026-05-08 08:46 26.73150 107.00122 15212 ft 374 kts 192°
2026-05-08 08:46 26.70632 106.99491 14825 ft 372 kts 192°
2026-05-08 08:46 26.68096 106.98862 14441 ft 370 kts 192°
2026-05-08 08:46 26.65586 106.98242 14062 ft 367 kts 192°
2026-05-08 08:47 26.63116 106.97635 13689 ft 365 kts 192°
2026-05-08 08:47 26.60620 106.97023 13312 ft 363 kts 192°
2026-05-08 08:47 26.58153 106.96419 12937 ft 361 kts 192°
2026-05-08 08:47 26.55695 106.95818 12563 ft 358 kts 192°
2026-05-08 08:48 26.53263 106.95223 12191 ft 356 kts 192°
2026-05-08 08:48 26.50851 106.94634 11820 ft 354 kts 192°
2026-05-08 08:48 26.48440 106.94044 11447 ft 352 kts 192°
2026-05-08 08:48 26.46092 106.93472 11302 ft 342 kts 192°
2026-05-08 08:49 26.43771 106.92908 11241 ft 330 kts 192°
2026-05-08 08:49 26.41550 106.92368 11173 ft 319 kts 192°
2026-05-08 08:49 26.39406 106.91846 11114 ft 308 kts 192°
2026-05-08 08:49 26.37345 106.91346 11061 ft 298 kts 192°
2026-05-08 08:50 26.35346 106.90860 11016 ft 288 kts 192°
2026-05-08 08:50 26.33420 106.90392 10976 ft 277 kts 192°
2026-05-08 08:50 26.31563 106.89941 10939 ft 267 kts 192°
2026-05-08 08:50 26.29782 106.89510 10902 ft 255 kts 192°
2026-05-08 08:51 26.28064 106.89093 10866 ft 243 kts 192°
2026-05-08 08:51 26.26448 106.88717 10825 ft 232 kts 190°
2026-05-08 08:51 26.24850 106.88394 10608 ft 231 kts 189°
2026-05-08 08:51 26.23266 106.88082 10360 ft 230 kts 189°
2026-05-08 08:52 26.21709 106.87775 10131 ft 229 kts 189°
2026-05-08 08:52 26.20151 106.87410 9890 ft 228 kts 202°
2026-05-08 08:52 26.18882 106.86378 9624 ft 228 kts 235°
2026-05-08 08:52 26.18312 106.84740 9395 ft 227 kts 268°
2026-05-08 08:53 26.18456 106.83009 9199 ft 224 kts 280°
2026-05-08 08:53 26.18747 106.81316 8982 ft 222 kts 281°
2026-05-08 08:53 26.19047 106.79623 8763 ft 221 kts 281°
2026-05-08 08:53 26.19337 106.77930 8546 ft 220 kts 281°
2026-05-08 08:54 26.19663 106.76264 8317 ft 220 kts 294°
2026-05-08 08:54 26.20574 106.74938 8065 ft 218 kts 329°
2026-05-08 08:54 26.21973 106.74413 7842 ft 214 kts 358°
2026-05-08 08:54 26.23455 106.74496 7635 ft 212 kts
2026-05-08 08:55 26.24919 106.74771 7431 ft 210 kts 12°
2026-05-08 08:55 26.26363 106.75079 7229 ft 209 kts 12°
2026-05-08 08:55 26.27786 106.75383 7045 ft 206 kts 12°
2026-05-08 08:55 26.29159 106.75667 6903 ft 198 kts 12°
2026-05-08 08:56 26.30528 106.75943 6907 ft 198 kts 11°
2026-05-08 08:56 26.31896 106.76214 6904 ft 199 kts 11°
2026-05-08 08:56 26.33260 106.76482 6898 ft 199 kts 11°
2026-05-08 08:56 26.34627 106.76747 6896 ft 199 kts 11°
2026-05-08 08:57 26.36007 106.77016 6887 ft 200 kts 11°
2026-05-08 08:57 26.37373 106.77280 6705 ft 199 kts 11°
2026-05-08 08:57 26.38732 106.77544 6432 ft 194 kts 11°
2026-05-08 08:57 26.40014 106.77793 6171 ft 183 kts 11°
2026-05-08 08:58 26.41239 106.78031 5930 ft 171 kts 11°
2026-05-08 08:58 26.42371 106.78252 5711 ft 161 kts 12°
2026-05-08 08:58 26.43451 106.78463 5503 ft 153 kts 12°
2026-05-08 08:58 26.44496 106.78668 5318 ft 154 kts 12°
2026-05-08 08:59 26.45555 106.78876 5122 ft 153 kts 12°
2026-05-08 08:59 26.46591 106.79078 4926 ft 153 kts 12°
2026-05-08 08:59 26.47638 106.79282 4713 ft 151 kts 12°
2026-05-08 08:59 26.48684 106.79465 4483 ft 150 kts 11°
2026-05-08 09:00 26.49705 106.79663 4309 ft 149 kts 13°
2026-05-08 09:00 26.50717 106.79888 4130 ft 149 kts 11°
2026-05-08 09:00 26.51743 106.80071 3892 ft 148 kts 12°
2026-05-08 09:00 26.52740 106.80276 3755 ft 137 kts 12°
2026-05-08 09:01 26.53521 106.80428 3753 ft 88 kts 12°
2026-05-08 09:01 26.53953 106.80499 3752 ft 35 kts 350°
2026-05-08 09:01 26.54164 106.80431 3752 ft 30 kts 340°
2026-05-08 09:01 26.54364 106.80401 3752 ft 28 kts
2026-05-08 09:02 26.54550 106.80437 3752 ft 26 kts 12°
2026-05-08 09:02 26.54693 106.80466 3752 ft 10 kts 352°
2026-05-08 09:02 26.54722 106.80411 3752 ft 9 kts 279°
2026-05-08 09:02 26.54738 106.80338 3752 ft 10 kts 285°
2026-05-08 09:03 26.54756 106.80251 3752 ft 12 kts 283°
2026-05-08 09:03 26.54772 106.80154 3752 ft 13 kts 275°
2026-05-08 09:03 26.54800 106.80060 3752 ft 10 kts 321°
2026-05-08 09:03 26.54834 106.80037 3752 ft 4 kts 313°
2026-05-08 09:04 26.54848 106.80016 3752 ft 4 kts 307°
2026-05-08 09:04 26.54869 106.79987 3752 ft 5 kts 309°
2026-05-08 09:04 26.54880 106.79972 3752 ft 0 kts 310°